カタログに戻る

SL-16 DEB

運用中LEO
NORAD 22405·DEBRIS·🇷🇺 Russia

打ち上げ Dec 25, 1992 から Baikonur Cosmodrome

Loading…

次のパス (今後24時間)

TLE

最新Source: Space-Track

元期: Sep 14, 2026, 10:29 UTC

1 22405U 92093CW  26257.43713694  .00000230  00000-0  78672-4 0  9994
2 22405  71.0349  53.2848 0119696  89.5104 271.9747 14.42651604747455

AllMySatでSL-16 DEBをリアルタイム追跡

Download on the App Store